Location: Champs
(48.8539°N, 2.6040°E)
Time: 21:19:46
(UTC+00:00)

SPOT 1 Rocket Y - Pass Details

Date: 19 August 2022
Orbit: 784 x 832 km, 98.5° (Epoch: 06 October)

Event Time Altitude Azimuth Distance (km) Brightness Sun altitude
Exits shadow 21:16:53 - 204° (SSW) 2,611 8.0 -19.6°
Reaches altitude 10° 21:17:37 10° 208° (SSW) 2,367 7.8 -19.7°
Maximum altitude 21:22:04 28° 267° (W) 1,484 7.3 -20.1°
Drops below altitude 10° 21:26:36 10° 325° (NW) 2,409 9.3 -20.6°
Sets 21:29:18 0° 337° (NNW) 3,354 10.2 -20.9°
